KB9LNR Weather Reports


time (UTC)temp
C
wind
direction
speed
KPH
gust
KPH
rain 1hr
cm
rain 24hr
cm
rain mn
cm
humidity
%
barometer
mb
20260506033102 9 0 0.0 0.0 0.00 0.05 0.03 74 1010.8
20260506031601 9 0 0.0 0.0 0.00 0.05 0.03 72 1010.5
20260506030100 10 0 0.0 0.0 0.00 0.05 0.03 73 1010.5
20260506024605 10 0 0.0 0.0 0.00 0.18 0.03 67 1010.4
20260506023109 9 0 0.0 1.6 0.00 0.18 0.03 67 1010.4
20260506021622 10 0 0.0 0.0 0.00 0.18 0.03 66 1010.2
20260506014601 10 0 0.0 0.0 0.00 0.18 0.03 59 1009.6
20260506013111 10 0 0.0 0.0 0.00 0.18 0.03 61 1009.6
20260506011617 11 0 0.0 0.0 0.00 0.18 0.03 67 1009.5
20260506004604 11 0 0.0 0.0 0.00 0.18 0.03 53 1009.2
20260506003101 11 0 0.0 1.6 0.00 0.18 0.03 56 1009.1
20260506001559 11 0 0.0 0.0 0.00 0.18 0.03 51 1008.9
20260506000101 11 0 0.0 3.2 0.00 0.18 0.03 51 1008.9
20260505234559 11 0 0.0 3.2 0.00 0.18 0.03 50 1008.7
20260505233105 11 310 0.0 6.4 0.00 0.18 0.03 51 1009.0
20260505231609 11 0 0.0 3.2 0.00 0.18 0.03 51 1008.9
20260505230059 11 310 1.6 6.4 0.00 0.18 0.03 51 1009.0
20260505224605 11 0 0.0 6.4 0.00 0.18 0.03 52 1009.0
20260505223107 11 326 1.6 8.0 0.00 0.18 0.03 49 1009.2
20260505221604 11 309 0.0 4.8 0.00 0.18 0.03 50 1009.1
20260505220101 11 327 1.6 6.4 0.00 0.18 0.03 50 1009.1
20260505214600 11 0 1.6 6.4 0.00 0.18 0.03 50 1009.3
20260505213100 11 306 3.2 8.0 0.00 0.18 0.03 48 1009.4
20260505211600 11 0 3.2 6.4 0.00 0.18 0.03 48 1009.5
20260505210058 12 309 3.2 8.0 0.00 0.18 0.03 52 1009.5
20260505204559 12 318 3.2 11.3 0.00 0.18 0.03 52 1009.9
20260505203123 12 311 3.2 8.0 0.00 0.18 0.03 52 1009.9
20260505201604 11 288 3.2 11.3 0.00 0.18 0.03 57 1010.1
20260505194601 11 0 0.0 3.2 0.00 0.18 0.03 64 1010.6
20260505193100 11 0 0.0 3.2 0.00 0.18 0.03 65 1010.5
20260505191612 11 0 0.0 4.8 0.00 0.18 0.03 64 1010.4
20260505190100 11 294 1.6 6.4 0.00 0.18 0.03 61 1010.5
20260505184601 11 5 0.0 3.2 0.00 0.18 0.03 62 1010.6
20260505183102 11 30 0.0 4.8 0.00 0.18 0.03 66 1010.4
20260505181559 11 0 0.0 6.4 0.00 0.18 0.03 62 1010.6
20260505180103 10 0 0.0 6.4 0.00 0.18 0.03 63 1010.6
20260505174606 11 283 0.0 4.8 0.00 0.18 0.03 62 1010.8
20260505173100 10 284 4.8 8.0 0.00 0.18 0.03 57 1010.8
20260505171601 11 0 3.2 8.0 0.00 0.18 0.03 58 1010.6
20260505170111 11 0 0.0 4.8 0.00 0.18 0.03 61 1010.2
20260505164559 11 288 1.6 11.3 0.00 0.18 0.03 57 1010.1
20260505163103 11 0 1.6 6.4 0.00 0.18 0.03 60 1010.1
20260505161616 11 292 4.8 11.3 0.00 0.18 0.03 60 1010.1
20260505160104 11 328 1.6 9.7 0.00 0.18 0.03 61 1009.9
20260505153107 10 296 0.0 9.7 0.00 0.18 0.03 67 1009.6
20260505151606 10 0 4.8 12.9 0.00 0.18 0.03 69 1009.2
20260505140116 7 315 1.6 6.4 0.00 0.18 0.03 77 1009.0
20260505130106 7 319 1.6 6.4 0.03 0.18 0.03 79 1009.3
20260505124603 7 311 1.6 6.4 0.03 0.18 0.03 80 1009.6
20260505123105 8 321 3.2 8.0 0.03 0.18 0.03 77 1010.0
20260505121625 8 305 3.2 9.7 0.00 0.15 0.00 73 1010.4
20260505120100 9 298 3.2 9.7 0.00 0.15 0.00 70 1010.6
20260505114603 9 291 4.8 9.7 0.00 0.15 0.00 67 1009.6
20260505113104 9 318 3.2 8.0 0.00 0.15 0.00 68 1007.9
20260505111603 10 321 3.2 8.0 0.00 0.15 0.00 66 1007.9
20260505101559 10 311 3.2 6.4 0.00 0.15 0.00 65 1007.8
20260505100101 10 312 1.6 4.8 0.00 0.15 0.00 65 1007.5
20260505094559 10 313 1.6 4.8 0.00 0.15 0.00 65 1007.4
20260505093057 10 318 1.6 9.7 0.00 0.15 0.00 66 1006.9
20260505091558 10 322 1.6 4.8 0.00 0.15 0.00 66 1007.4
20260505090107 11 323 0.0 9.7 0.00 0.15 0.00 63 1007.0
20260505084559 11 302 1.6 6.4 0.00 0.15 0.00 62 1006.9
20260505083103 11 298 1.6 4.8 0.00 0.15 0.00 60 1006.9
20260505081559 12 333 3.2 12.9 0.00 0.15 0.00 59 1006.4
20260505080059 12 298 1.6 11.3 0.00 0.15 0.00 60 1006.0
20260505074559 12 309 1.6 8.0 0.00 0.15 0.00 60 1005.4
20260505073100 12 300 1.6 6.4 0.00 0.15 0.00 60 1005.0
20260505071601 12 300 3.2 8.0 0.00 0.15 0.00 57 1004.8
20260505064601 13 298 3.2 6.4 0.00 0.15 0.00 60 1004.6
20260505063059 13 325 3.2 8.0 0.00 0.15 0.00 60 1004.3
20260505061607 13 314 3.2 6.4 0.00 0.15 0.00 65 1004.1
20260505060110 13 311 0.0 4.8 0.00 0.15 0.00 69 1003.9
20260505054601 13 311 1.6 3.2 0.00 0.15 0.00 72 1003.8
20260505053108 14 311 0.0 3.2 0.00 0.15 0.00 71 1003.7
20260505051602 15 0 0.0 3.2 0.00 0.15 0.00 72 1003.0
20260505041557 15 0 0.0 4.8 0.00 0.15 0.15 78 1002.4
20260505040106 15 322 1.6 6.4 0.03 0.15 0.15 80 1001.9
20260505034601 15 319 1.6 6.4 0.03 0.15 0.15 81 1001.3
20260505033115 14 309 1.6 4.8 0.08 0.15 0.15 88 1001.5